Radiation Dose at Monitoring Post of Fukushima Daini Nuclear Power Station
Date,Time,MP-1(microSv/h),MP-2(microSv/h),MP-3(microSv/h),MP-4(microSv/h),MP-5(microSv/h),MP-6(microSv/h),MP-7(microSv/h),Wind Direction,Wind Velocity(m/s),Rain
2021/02/21,00:00,0.176,0.159,0.254,0.242,0.239,0.139,0.085,northwest,6.0,No
2021/02/21,00:10,0.175,0.158,0.254,0.242,0.239,0.139,0.085,west,8.5,No
2021/02/21,00:20,0.176,0.159,0.255,0.243,0.240,0.140,0.084,west,5.5,No
2021/02/21,00:30,0.177,0.158,0.255,0.243,0.239,0.139,0.085,west-southwest,7.5,No
2021/02/21,00:40,0.176,0.158,0.254,0.243,0.237,0.139,0.085,west-northwest,5.0,No
2021/02/21,00:50,0.176,0.158,0.256,0.243,0.238,0.138,0.085,west,4.0,No
2021/02/21,01:00,0.177,0.159,0.256,0.243,0.238,0.139,0.084,west,4.9,No
2021/02/21,01:10,0.176,0.157,0.254,0.242,0.238,0.139,0.085,west-southwest,3.9,No
2021/02/21,01:20,0.176,0.158,0.255,0.242,0.238,0.139,0.085,southwest,1.7,No
2021/02/21,01:30,0.176,0.159,0.255,0.243,0.240,0.138,0.084,south,2.2,No
2021/02/21,01:40,0.176,0.158,0.255,0.243,0.238,0.139,0.085,southwest,0.8,No
2021/02/21,01:50,0.176,0.158,0.253,0.241,0.237,0.139,0.085,west-southwest,1.9,No
2021/02/21,02:00,0.176,0.159,0.255,0.242,0.238,0.139,0.085,northwest,1.0,No
2021/02/21,02:10,0.175,0.158,0.254,0.244,0.238,0.140,0.085,west-southwest,1.0,No
2021/02/21,02:20,0.176,0.158,0.255,0.242,0.238,0.139,0.084,west-southwest,2.2,No
2021/02/21,02:30,0.175,0.159,0.255,0.243,0.238,0.139,0.085,-,CALM,No
2021/02/21,02:40,0.176,0.158,0.255,0.242,0.238,0.139,0.084,north,0.8,No
2021/02/21,02:50,0.176,0.158,0.256,0.242,0.237,0.139,0.085,northwest,2.0,No
2021/02/21,03:00,0.176,0.158,0.255,0.242,0.238,0.138,0.085,west-northwest,3.6,No
2021/02/21,03:10,0.175,0.159,0.256,0.243,0.239,0.139,0.085,north-northwest,0.7,No
2021/02/21,03:20,0.175,0.157,0.255,0.243,0.237,0.138,0.085,northwest,0.9,No
2021/02/21,03:30,0.176,0.158,0.255,0.242,0.238,0.139,0.084,west,1.3,No
2021/02/21,03:40,0.175,0.159,0.255,0.241,0.238,0.138,0.085,west-southwest,0.7,No
2021/02/21,03:50,0.176,0.158,0.256,0.244,0.238,0.139,0.085,east-northeast,0.9,No
2021/02/21,04:00,0.176,0.158,0.254,0.242,0.237,0.139,0.085,north-northwest,1.8,No
2021/02/21,04:10,0.177,0.159,0.255,0.242,0.239,0.139,0.085,north-northwest,1.7,No
2021/02/21,04:20,0.175,0.159,0.254,0.242,0.238,0.139,0.084,west-northwest,0.9,No
2021/02/21,04:30,0.176,0.158,0.254,0.243,0.238,0.139,0.085,west-northwest,2.1,No
2021/02/21,04:40,0.177,0.158,0.255,0.243,0.239,0.139,0.084,south-southeast,0.8,No
2021/02/21,04:50,0.177,0.158,0.255,0.242,0.238,0.139,0.084,southwest,1.0,No
2021/02/21,05:00,0.175,0.157,0.256,0.242,0.238,0.139,0.085,west,2.7,No
2021/02/21,05:10,0.176,0.158,0.256,0.243,0.237,0.138,0.085,west-southwest,2.4,No
2021/02/21,05:20,0.176,0.158,0.255,0.243,0.239,0.140,0.084,west,2.4,No
2021/02/21,05:30,0.176,0.159,0.255,0.242,0.237,0.139,0.085,west,1.4,No
2021/02/21,05:40,0.176,0.159,0.255,0.241,0.238,0.138,0.084,south-southwest,1.0,No
2021/02/21,05:50,0.176,0.158,0.254,0.242,0.239,0.139,0.085,southeast,2.8,No
2021/02/21,06:00,0.177,0.159,0.256,0.242,0.237,0.139,0.085,southeast,3.3,No
2021/02/21,06:10,0.176,0.158,0.255,0.242,0.237,0.138,0.085,southeast,3.6,No
2021/02/21,06:20,0.177,0.159,0.255,0.242,0.239,0.138,0.085,south-southeast,3.2,No
2021/02/21,06:30,0.176,0.159,0.255,0.244,0.237,0.139,0.085,south-southwest,2.8,No
2021/02/21,06:40,0.175,0.159,0.255,0.242,0.237,0.139,0.085,southwest,2.2,No
2021/02/21,06:50,0.176,0.159,0.256,0.243,0.238,0.139,0.085,west-southwest,2.2,No
2021/02/21,07:00,0.176,0.158,0.256,0.242,0.238,0.139,0.085,west,4.2,No
2021/02/21,07:10,0.175,0.158,0.255,0.243,0.238,0.138,0.085,west,4.1,No
2021/02/21,07:20,0.176,0.158,0.256,0.243,0.239,0.139,0.085,west-southwest,3.3,No
2021/02/21,07:30,0.176,0.158,0.256,0.242,0.239,0.140,0.085,southwest,3.7,No
2021/02/21,07:40,0.176,0.158,0.255,0.244,0.238,0.139,0.084,south-southwest,1.6,No
2021/02/21,07:50,0.177,0.158,0.255,0.242,0.238,0.139,0.084,south-southeast,2.8,No
2021/02/21,08:00,0.176,0.159,0.255,0.242,0.237,0.139,0.085,south-southeast,2.9,No
2021/02/21,08:10,0.175,0.159,0.256,0.242,0.237,0.138,0.085,south-southeast,4.1,No
2021/02/21,08:20,0.176,0.158,0.254,0.243,0.239,0.138,0.086,south,4.7,No
2021/02/21,08:30,0.176,0.159,0.254,0.242,0.238,0.139,0.085,south,5.5,No
2021/02/21,08:40,0.176,0.158,0.255,0.243,0.239,0.139,0.085,south-southeast,5.2,No
2021/02/21,08:50,0.176,0.158,0.255,0.242,0.239,0.138,0.086,south,5.9,No
2021/02/21,09:00,0.175,0.158,0.254,0.242,0.238,0.139,0.086,south,6.0,No
2021/02/21,09:10,0.176,0.158,0.254,0.244,0.239,0.138,0.086,south-southeast,5.8,No
2021/02/21,09:20,0.177,0.158,0.255,0.243,0.238,0.139,0.085,south,6.7,No
2021/02/21,09:30,0.175,0.158,0.253,0.243,0.238,0.137,0.086,south-southeast,7.8,No
2021/02/21,09:40,0.176,0.158,0.255,0.243,0.237,0.138,0.085,south-southeast,7.3,No
2021/02/21,09:50,0.174,0.158,0.253,0.242,0.238,0.138,0.084,south-southeast,8.5,No
2021/02/21,10:00,0.176,0.157,0.255,0.242,0.238,0.137,0.085,south-southeast,7.0,No
2021/02/21,10:10,0.176,0.158,0.255,0.241,0.237,0.139,0.085,south-southeast,7.3,No
2021/02/21,10:20,0.177,0.158,0.255,0.244,0.239,0.139,0.086,south-southeast,6.2,No
2021/02/21,10:30,0.174,0.158,0.254,0.241,0.238,0.139,0.084,south-southeast,5.7,No
2021/02/21,10:40,0.177,0.159,0.255,0.243,0.239,0.140,0.085,south-southeast,5.3,No
2021/02/21,10:50,0.176,0.158,0.256,0.242,0.238,0.139,0.085,south-southeast,5.7,No
2021/02/21,11:00,0.177,0.158,0.254,0.242,0.239,0.139,0.085,south-southeast,5.4,No
2021/02/21,11:10,0.176,0.159,0.255,0.242,0.238,0.139,0.086,south-southeast,5.1,No
2021/02/21,11:20,0.178,0.158,0.254,0.243,0.239,0.139,0.085,south-southeast,3.2,No
2021/02/21,11:30,0.175,0.157,0.254,0.242,0.237,0.138,0.085,southeast,4.0,No
2021/02/21,11:40,0.176,0.159,0.254,0.243,0.238,0.139,0.085,south-southeast,3.6,No
2021/02/21,11:50,0.175,0.158,0.254,0.242,0.240,0.139,0.085,south-southeast,2.0,No
2021/02/21,12:00,0.176,0.158,0.255,0.243,0.236,0.139,0.085,southeast,2.3,No
2021/02/21,12:10,0.175,0.158,0.251,0.243,0.240,0.139,0.085,southeast,3.4,No
2021/02/21,12:20,0.174,0.158,0.255,0.240,0.236,0.139,0.084,southeast,4.2,No
2021/02/21,12:30,0.176,0.158,0.254,0.242,0.236,0.139,0.085,south-southeast,3.3,No
2021/02/21,12:40,0.177,0.158,0.252,0.241,0.238,0.138,0.084,south-southeast,4.5,No
2021/02/21,12:50,0.174,0.159,0.255,0.242,0.237,0.138,0.085,south-southeast,2.0,No
2021/02/21,13:00,0.176,0.159,0.254,0.243,0.237,0.140,0.085,west-southwest,3.2,No
2021/02/21,13:10,0.175,0.158,0.254,0.240,0.240,0.138,0.084,west,8.5,No
2021/02/21,13:20,0.174,0.158,0.256,0.243,0.236,0.140,0.084,west,9.6,No
2021/02/21,13:30,0.176,0.159,0.254,0.243,0.237,0.139,0.084,west-northwest,10.3,No
2021/02/21,13:40,0.175,0.158,0.254,0.241,0.237,0.139,0.084,west,7.4,No
2021/02/21,13:50,0.174,0.158,0.255,0.242,0.236,0.139,0.085,west-northwest,9.0,No
2021/02/21,14:00,0.176,0.159,0.253,0.243,0.236,0.139,0.084,west-northwest,6.1,No
2021/02/21,14:10,0.177,0.157,0.256,0.240,0.239,0.137,0.084,northwest,5.8,No
2021/02/21,14:20,0.175,0.159,0.254,0.242,0.238,0.138,0.085,west-northwest,5.7,No
2021/02/21,14:30,0.178,0.158,0.255,0.242,0.237,0.139,0.085,west-northwest,7.0,No
2021/02/21,14:40,0.176,0.157,0.257,0.241,0.238,0.139,0.086,northwest,7.5,No
2021/02/21,14:50,0.175,0.158,0.255,0.242,0.240,0.139,0.085,west-northwest,6.9,No
2021/02/21,15:00,0.177,0.157,0.256,0.242,0.237,0.138,0.085,west-northwest,7.3,No
2021/02/21,15:10,0.175,0.159,0.256,0.243,0.237,0.138,0.085,west-northwest,6.6,No
2021/02/21,15:20,0.176,0.159,0.255,0.244,0.240,0.139,0.084,west-northwest,4.6,No
2021/02/21,15:30,0.177,0.158,0.255,0.244,0.237,0.139,0.085,west-northwest,3.4,No
2021/02/21,15:40,0.175,0.159,0.256,0.242,0.241,0.137,0.085,west,3.8,No
2021/02/21,15:50,0.179,0.159,0.256,0.244,0.238,0.137,0.085,northwest,3.4,No
2021/02/21,16:00,0.176,0.159,0.255,0.244,0.240,0.140,0.085,northwest,4.7,No
2021/02/21,16:10,0.177,0.159,0.256,0.243,0.239,0.139,0.085,west-northwest,2.3,No
2021/02/21,16:20,0.176,0.158,0.255,0.242,0.239,0.139,0.085,west,1.4,No
2021/02/21,16:30,0.177,0.159,0.257,0.243,0.240,0.139,0.084,northwest,0.6,No
2021/02/21,16:40,0.175,0.158,0.255,0.243,0.238,0.139,0.085,west-northwest,1.3,No
2021/02/21,16:50,0.177,0.159,0.256,0.244,0.240,0.139,0.085,northwest,2.8,No
2021/02/21,17:00,0.176,0.160,0.256,0.242,0.239,0.139,0.085,northwest,3.7,No
2021/02/21,17:10,0.176,0.159,0.257,0.243,0.240,0.139,0.085,west-northwest,4.8,No
2021/02/21,17:20,0.176,0.159,0.257,0.244,0.239,0.139,0.085,northwest,3.8,No
2021/02/21,17:30,0.175,0.159,0.257,0.242,0.238,0.139,0.085,west-northwest,3.7,No
2021/02/21,17:40,0.177,0.160,0.255,0.243,0.240,0.139,0.085,west-northwest,4.8,No
2021/02/21,17:50,0.176,0.158,0.257,0.242,0.238,0.140,0.086,west,1.9,No
2021/02/21,18:00,0.177,0.159,0.255,0.244,0.241,0.138,0.085,south-southwest,2.1,No
2021/02/21,18:10,0.177,0.160,0.257,0.243,0.239,0.140,0.085,south-southwest,1.5,No
2021/02/21,18:20,0.177,0.159,0.257,0.243,0.239,0.140,0.085,south-southeast,2.4,No
2021/02/21,18:30,0.176,0.159,0.256,0.244,0.239,0.140,0.086,south,3.4,No
2021/02/21,18:40,0.176,0.160,0.257,0.242,0.239,0.140,0.085,south-southwest,2.1,No
2021/02/21,18:50,0.177,0.160,0.256,0.243,0.240,0.140,0.086,southwest,1.9,No
2021/02/21,19:00,0.177,0.159,0.256,0.243,0.239,0.140,0.085,west-southwest,2.6,No
2021/02/21,19:10,0.176,0.159,0.256,0.243,0.238,0.138,0.086,west,3.2,No
2021/02/21,19:20,0.177,0.159,0.256,0.243,0.238,0.140,0.085,west-southwest,3.2,No
2021/02/21,19:30,0.178,0.158,0.256,0.243,0.237,0.140,0.085,west-southwest,2.7,No
2021/02/21,19:40,0.177,0.159,0.255,0.243,0.239,0.140,0.085,south,2.5,No
2021/02/21,19:50,0.176,0.158,0.257,0.244,0.237,0.139,0.085,south-southeast,4.0,No
2021/02/21,20:00,0.177,0.159,0.256,0.243,0.238,0.140,0.085,south-southeast,3.8,No
2021/02/21,20:10,0.176,0.159,0.256,0.243,0.239,0.139,0.085,south-southeast,3.1,No
2021/02/21,20:20,0.177,0.159,0.257,0.245,0.238,0.140,0.085,south,3.1,No
2021/02/21,20:30,0.177,0.159,0.256,0.243,0.239,0.140,0.085,south-southeast,2.4,No
2021/02/21,20:40,0.176,0.159,0.256,0.242,0.240,0.139,0.085,south-southeast,2.7,No
2021/02/21,20:50,0.177,0.159,0.256,0.244,0.239,0.139,0.086,south-southeast,3.0,No
2021/02/21,21:00,0.177,0.159,0.257,0.244,0.239,0.139,0.085,south,3.2,No
2021/02/21,21:10,0.177,0.159,0.256,0.243,0.239,0.140,0.085,south,3.2,No
2021/02/21,21:20,0.177,0.160,0.258,0.244,0.238,0.139,0.085,south-southwest,2.2,No
2021/02/21,21:30,0.177,0.159,0.255,0.244,0.239,0.139,0.086,west-southwest,2.3,No
2021/02/21,21:40,0.176,0.159,0.258,0.242,0.239,0.140,0.085,west-northwest,2.0,No
2021/02/21,21:50,0.177,0.160,0.257,0.243,0.240,0.140,0.086,west-northwest,4.4,No
2021/02/21,22:00,0.176,0.161,0.256,0.243,0.239,0.140,0.086,west-northwest,4.3,No
2021/02/21,22:10,0.177,0.159,0.256,0.244,0.239,0.139,0.087,west-northwest,2.1,No
2021/02/21,22:20,0.177,0.159,0.257,0.243,0.239,0.140,0.085,southeast,1.2,No
2021/02/21,22:30,0.177,0.159,0.256,0.244,0.239,0.141,0.085,southeast,2.0,No
2021/02/21,22:40,0.178,0.159,0.256,0.244,0.239,0.140,0.085,south,1.7,No
2021/02/21,22:50,0.176,0.159,0.257,0.242,0.239,0.140,0.085,south-southwest,1.7,No
2021/02/21,23:00,0.177,0.161,0.255,0.244,0.239,0.139,0.085,southwest,1.9,No
2021/02/21,23:10,0.177,0.158,0.256,0.243,0.238,0.140,0.084,west-southwest,2.3,No
2021/02/21,23:20,0.176,0.158,0.257,0.243,0.239,0.140,0.086,southwest,2.9,No
2021/02/21,23:30,0.177,0.159,0.257,0.243,0.239,0.139,0.085,southwest,4.5,No
2021/02/21,23:40,0.178,0.160,0.256,0.243,0.238,0.139,0.085,southwest,5.0,No
2021/02/21,23:50,0.176,0.158,0.256,0.243,0.240,0.139,0.085,southwest,5.0,No
